Regional Weather Roundup
Issued by NWS Cleveland, OH

Home | Current Version | Previous Version | Graphics & Text | Print | Product List | Glossary On
Versions: 1 2 3 4 5 6 7 8 9 10 11 12 13 14 15 16 17 18 19 20 21 22 23 24 25 26 27 28 29 30 31 32 33 34 35 36 37 38 39 40 41 42 43 44 45 46 47 48 49 50
627
ASUS41 KCLE 121110
RWRCLE
OHIO REGIONAL WEATHER ROUNDUP
NATIONAL WEATHER SERVICE WILMINGTON, OH
600 AM EST FRI FEB 12 2016

NOTE: "FAIR" INDICATES FEW OR NO CLOUDS BELOW 12,000 FEET WITH NO
SIGNIFICANT WEATHER AND/OR OBSTRUCTIONS TO VISIBILITY.

OHZ001>008-015>018-024>027-034-035-043-044-121200-
   NORTHWEST OHIO

CITY           SKY/WX    TMP DP  RH WIND       PRES   REMARKS
DEFIANCE       CLOUDY    16   9  74 SW5       30.16F WCI   9
FINDLAY        CLOUDY    15   8  73 S7        30.15F WCI   5
TOLEDO EXPRESS CLOUDY    13   8  81 S6        30.15F WCI   4
TOLEDO EXEC    CLOUDY    15   8  73 SW9       30.16F WCI   3
LIMA           CLOUDY    14   8  77 S7        30.15F WCI   4
$$

OHZ009>014-019>023-028>033-038-089-121200-
   NORTHEAST OHIO

CITY           SKY/WX    TMP DP  RH WIND       PRES   REMARKS
CLE-HOPKINS    MOCLDY    14   7  73 SW8       30.18F WCI   3
CLE-LAKEFRONT  FAIR      18   9  68 SW16      30.16S WCI   3
CUY CO. ARPT   NOT AVBL
LORAIN-ELYRIA  CLOUDY    13   6  74 SW8       30.16F WCI   2
ASHTABULA      CLOUDY    11   3  70 SW8       30.14S WCI  -1
AKRON-CANTON   MOCLDY    10   3  73 SW8       30.15S WCI  -2
WOOSTER        CLOUDY    10   5  80 SW8       30.16S WCI  -2
MANSFIELD      CLOUDY     9   4  80 SW6       30.13F WCI  -1
YOUNGSTOWN     CLOUDY     9   3  77 S7        30.14F WCI  -2
$$

OHZ042-051>053-060>062-070>072-077>081-121200-
  SOUTHWEST OHIO

CITY           SKY/WX    TMP DP  RH WIND       PRES   REMARKS
CINC-COVINGTON CLOUDY    20   9  62 E3        30.19R
CINC-LUNKEN    CLOUDY    18  13  80 CALM      30.24R
HAMILTON       CLOUDY    14  11  87 CALM      30.22S
DAYTON         CLOUDY    15   9  76 S5        30.18S WCI   8
WRIGHT-PAT AFB CLOUDY    12   6  77 S3        30.19S
DAYTON GENERAL CLOUDY    15   4  61 S5        30.18S WCI   8
WILMINGTON     CLOUDY     9   4  80 S3        30.18S
$$

OHZ036-037-039>041-045>050-054>059-063>069-073>076-082>088-121200-
  CENTRAL AND SOUTHEAST OHIO

CITY           SKY/WX    TMP DP  RH WIND       PRES   REMARKS
COLUMBUS       CLOUDY     9   4  80 CALM      30.21S
OSU AIRPORT    CLOUDY    13   8  81 S7        30.19S WCI   3
BOLTON FIELD   MOCLDY     9   6  88 MISG      30.20S
RICKENBACK AFB MOCLDY     7   4  85 CALM      30.21S
NEWARK         FAIR       5   0  79 CALM      30.20S
MARION         CLOUDY    13   5  70 S6        30.17F WCI   4
LANCASTER      MOCLDY     7   3  84 S3        30.21S
ZANESVILLE     FAIR       3  -2  79 CALM      30.21S
NEW PHILLY     FAIR       6   3  87 SE6       30.21S WCI  -4
$$




USA.gov is the U.S. government's official web portal to all federal, state and local government web resources and services.